Regional Weather Roundup
Issued by NWS

Home | Current Version | Previous Version | Text Only | Print | Product List | Glossary Off
Versions: 1 2 3 4 5 6 7 8 9 10 11 12 13 14 15 16 17 18 19 20 21 22 23 24 25 26 27 28 29 30 31 32 33 34 35 36 37 38 39 40 41 42 43 44 45 46 47 48 49 50

000
ASUS43 KDMX 281808
RWRIA

WEATHER ROUNDUP FOR IOWA
NATIONAL WEATHER SERVICE DES MOINES IA
100 PM CDT THU JUL 28 2016

NOTE: "FAIR" INDICATES FEW OR NO CLOUDS BELOW 12,000 FEET WITH NO
SIGNIFICANT WEATHER AND/OR OBSTRUCTIONS TO VISIBILITY.

* - THESE STATIONS ARE NOT NWS STATIONS...THUS NOT UNDER NWS
QUALITY CONTROL.  THEY ALSO DO NOT REPORT WEATHER SUCH
AS PRECIPITATION OR FOG.

IAZ001>003-012>014-020>022-031>034-043>046-281900-
   NORTHWEST IOWA

CITY           SKY/WX    TMP DP  RH WIND       PRES   REMARKS
CARROLL *      MOSUNNY   77  68  73 N9G17     30.01S
CHEROKEE *     MOSUNNY   75  65  69 N8        30.03S
DENISON *      MOSUNNY   77  64  65 NW9G15    30.01R
LE MARS *      MOSUNNY   77  63  61 N12       30.05S
SHELDON *      CLOUDY    73  64  73 N8        30.04S
SIOUX CITY     SUNNY     80  61  52 NW10      30.04F HX  81
6HR MIN TEMP:  65; 6HR MAX TEMP:  80;

SPENCER        CLOUDY    72  61  68 N10       30.04F
6HR MIN TEMP:  63; 6HR MAX TEMP:  72;

STORM LAKE *     N/A     73  64  73 NW7G14    30.04S
$$

IAZ055>058-069>071-079>083-090>094-281900-
   SOUTHWEST IOWA

CITY           SKY/WX    TMP DP  RH WIND       PRES   REMARKS
ATLANTIC *     SUNNY     79  66  65 NW8G15    30.01S HX  81
HARLAN  *      MOSUNNY   79  66  65 N12       30.05F HX  81
LAMONI         SUNNY     82  68  62 N13       29.98S HX  85
6HR MIN TEMP:  68; 6HR MAX TEMP:  82;

SHENANDOAH *   MOSUNNY   81  70  69 N10       30.01S HX  84
$$

IAZ047>049-059>061-072>074-084-281900-
   CENTRAL IOWA

CITY           SKY/WX    TMP DP  RH WIND       PRES   REMARKS
AMES           PTSUNNY   74  66  76 N13       29.99F
6HR MIN TEMP:  66; 6HR MAX TEMP:  74;

BOONE *        CLOUDY    72  64  78 N12G17    30.00S
CHARITON *       N/A    N/A N/A N/A MISG        N/A
DES MOINES     MOSUNNY   77  65  66 NE10      29.99S
6HR MIN TEMP:  71; 6HR MAX TEMP:  78;

GRINNELL*      PTSUNNY   75  65  70 NW12      29.98S
KNOXVILLE *    PTSUNNY   73  64  73 N10G20    29.97S
MARSHALLTOWN   MOSUNNY   77  65  66 N14       29.96F
6HR MIN TEMP:  63; 6HR MAX TEMP:  77;

NEWTON *       PTSUNNY   75  66  73 N14       29.97F
PELLA *        PTSUNNY   76  65  68 NW8       29.99S
PERRY *        CLOUDY    74  67  79 N9        30.01S
$$

IAZ004>006-015-016-023>025-035-036-281900-
   NORTH CENTRAL IOWA

CITY           SKY/WX    TMP DP  RH WIND       PRES   REMARKS
ALGONA *       CLOUDY    72  63  73 N13       30.02F
ESTHERVILLE    CLOUDY    69  63  81 N8        30.04F
6HR MIN TEMP:  63; 6HR MAX TEMP:  69;

FORT DODGE *   CLOUDY    70  63  78 N7        30.02S
MASON CITY     CLOUDY    71  64  78 N14       30.01F
6HR MIN TEMP:  66; 6HR MAX TEMP:  72; 6HR PCP: TRACE;

FOREST CITY *  CLOUDY    70  63  78 N14       30.01F
IOWA FALLS *   PTSUNNY   77  63  62 NW13G18   29.99F
$$

IAZ007>011-017>019-026>030-037>042-050>054-066-281900-
   NORTHEAST IOWA

CITY           SKY/WX    TMP DP  RH WIND       PRES   REMARKS
CEDAR RAPIDS   PTSUNNY   76  68  76 NW9       29.93F
6HR MIN TEMP:  67; 6HR MAX TEMP:  77;

CHARLES CITY * PTSUNNY   72  68  88 N10G17    29.98F
CLINTON *      PTSUNNY   78  73  84 W12       29.90S HX  81
DECORAH *      CLOUDY    72  66  83 NW10      29.94F
DUBUQUE        PTSUNNY   77  70  79 W9        29.93R
6HR MIN TEMP:  70; 6HR MAX TEMP:  80;

MONTICELLO *   MOSUNNY   79  70  73 MISG      29.91F HX  81
OELWEIN *      CLOUDY    73  68  83 N12       29.95F
WATERLOO       CLOUDY    76  66  71 N15       29.94F
6HR MIN TEMP:  67; 6HR MAX TEMP:  76;

$$

IAZ064-065-067-068-078-281900-
   EAST CENTRAL IOWA

CITY           SKY/WX    TMP DP  RH WIND       PRES   REMARKS
DAVENPORT      MOSUNNY   80  71  74 NW13G21   29.92R HX  84
6HR MIN TEMP:  67; 6HR MAX TEMP:  83;

IOWA CITY      PTSUNNY   79  65  62 N13       29.94F HX  81
6HR MIN TEMP:  70; 6HR MAX TEMP:  79;

QUAD CITIES    PTSUNNY   85  69  58 W14       29.89S HX  89
6HR MIN TEMP:  71; 6HR MAX TEMP:  86;

$$

IAZ062-063-075>077-085>089-095>099-281900-
   SOUTHEAST IOWA

CITY           SKY/WX    TMP DP  RH WIND       PRES   REMARKS
BURLINGTON     MOSUNNY   82  72  71 NW12      29.92S HX  87
6HR MIN TEMP:  70; 6HR MAX TEMP:  83;

KEOKUK *       LGT RAIN  75  70  83 N6G20     29.92S
OSKALOOSA *      N/A     75  67  76 NW14G20   29.97S
CENTERVILLE *    N/A     82  68  61 N10G16    29.97F HX  85
OTTUMWA        PTSUNNY   77  66  68 NW15      29.95S
6HR MIN TEMP:  68; 6HR MAX TEMP:  79;

WASHINGTON *   MOSUNNY   77  68  73 NW8G14    29.95F
$$

ABBREVIATIONS USED IN REMARKS
   TC - TEMPERATURES IN CELSIUS
  WCI - WIND CHILL INDEX
   HX - HEAT INDEX
  VSB - VISIBILITY
$$





USA.gov is the U.S. government's official web portal to all federal, state and local government web resources and services.